Wind_Speed
41 39 36 34 34 34 34 33 33 33 34 35 37 38 37 35 35 35 33 32 32 32 32 33 33 34 34 34 35 34 35 37 40 40 39 39 39 40 42 44 45 44 43 41 40 42 44 46 47 44 41 38 37 37 38 40 41 42 42 41 40 39 38
43 41 38 35 34 35 37 36 35 34 34 35 36 35 34 33 32 31 29 29 29 30 31 32 33 33 34 34 34 34 34 36 39 41 41 40 39 38 39 40 41 41 42 42 42 44 45 46 47 47 45 43 42 42 42 42 42 43 44 44 43 43 41
42 41 39 36 35 35 37 36 34 33 32 32 33 33 32 30 28 27 26 26 27 28 30 31 31 32 32 33 34 34 35 36 38 40 42 42 41 40 39 39 40 40 42 42 43 44 45 45 46 46 46 46 46 46 46 45 44 45 45 45 44 43 43
42 41 40 38 36 35 35 34 33 32 30 28 30 31 31 28 24 22 22 23 24 26 28 29 30 31 31 32 33 34 34 36 37 39 41 43 43 43 41 41 40 41 43 44 45 44 44 44 45 47 48 49 50 50 50 49 48 48 48 47 45 43 42
45 45 43 39 36 33 34 34 33 34 32 32 33 32 30 27 22 20 21 21 22 23 24 25 26 27 29 30 31 32 33 35 36 38 40 41 43 44 44 43 43 43 45 46 46 46 46 46 47 49 50 51 52 53 53 51 50 50 50 49 47 44 43
46 46 44 40 36 34 35 36 37 38 38 39 40 37 34 30 27 25 24 23 24 23 23 22 22 22 23 25 27 29 31 33 35 37 38 40 42 43 43 44 44 45 46 47 48 48 49 50 51 51 52 53 54 54 53 53 52 51 51 51 50 48 45
44 44 44 42 39 38 39 41 42 44 44 45 45 44 41 37 34 32 30 30 29 28 27 25 24 23 22 21 22 23 25 29 32 35 37 39 40 42 43 45 45 46 47 48 50 51 53 54 54 54 54 54 55 54 53 53 52 52 51 50 51 50 49
43 44 45 45 44 44 45 45 46 46 46 46 46 46 44 42 41 39 38 38 36 35 33 30 28 27 27 26 24 24 24 25 27 30 33 36 38 40 42 44 46 48 49 50 51 53 54 55 55 55 54 54 54 53 52 51 51 49 49 48 48 49 50
45 46 47 48 49 49 49 48 47 47 47 47 46 46 46 45 45 44 43 42 41 40 38 35 33 32 32 32 31 29 28 26 27 28 30 32 34 36 38 40 43 45 47 48 49 49 50 50 50 50 50 50 50 49 48 48 48 47 47 47 47 48 49
51 51 51 52 52 52 51 50 49 48 49 50 49 49 48 47 46 45 44 43 42 41 40 39 38 37 37 37 36 34 31 30 29 29 30 31 32 34 35 37 38 40 41 42 43 43 43 44 44 45 45 46 47 46 46 47 47 47 47 47 48 48 49
54 54 54 54 54 54 53 52 51 49 49 49 50 50 49 48 46 45 45 44 43 42 42 42 41 40 40 40 40 38 36 34 33 33 32 33 33 34 35 36 37 37 38 38 39 39 40 40 41 42 43 45 45 46 47 48 48 48 49 49 49 50 50
51 52 53 54 54 55 56 55 54 52 50 49 49 49 49 48 48 47 46 46 45 45 45 45 44 44 43 43 43 43 41 40 38 37 36 35 35 36 36 37 37 38 38 38 39 40 40 40 41 42 43 44 45 46 47 48 49 50 50 50 51 51 52
45 47 49 51 53 55 56 57 57 56 54 53 51 50 49 49 49 49 48 48 49 49 49 49 48 48 47 47 46 46 46 45 43 41 39 38 38 39 39 39 39 40 41 41 43 44 45 45 44 44 45 46 46 47 48 48 49 50 50 51 52 52 53
41 42 45 48 50 53 55 57 57 57 57 56 55 53 52 51 51 51 52 52 53 53 53 53 52 51 51 51 50 50 50 49 47 45 43 42 41 42 42 43 43 42 42 43 45 48 49 50 49 48 48 48 48 48 48 48 48 50 50 51 52 53 53
37 38 41 44 47 50 52 55 57 57 58 59 59 58 57 55 55 54 55 55 55 55 55 55 54 54 54 54 54 54 53 53 52 49 47 45 45 45 46 47 48 47 47 47 49 51 52 52 52 51 51 50 50 49 49 48 49 49 50 51 52 52 53
43 47 47 47 48 50 52 55 57 58 59 60 60 60 60 59 59 58 58 57 57 56 56 56 56 56 56 57 57 57 57 57 55 52 50 50 49 49 49 50 51 52 52 54 55 56 56 54 53 53 52 51 51 51 51 51 51 51 51 52 53 53 53
42 49 53 56 58 58 57 58 59 60 61 61 62 62 62 63 63 63 63 62 60 59 58 58 57 56 56 56 57 58 59 58 56 55 54 53 52 53 53 54 53 54 56 58 59 59 58 56 54 54 54 53 53 52 52 53 53 53 53 54 55 54 53
36 40 45 48 49 51 53 55 57 59 61 62 63 64 63 64 65 65 65 65 63 62 61 59 59 58 57 57 58 59 59 58 58 57 57 56 55 57 57 58 58 58 60 61 61 60 59 57 56 55 56 55 54 52 52 53 54 54 54 54 55 54 54
43 42 40 38 37 40 45 49 52 55 58 60 61 62 62 63 64 64 65 64 63 62 61 60 59 59 59 59 60 61 61 61 60 60 58 57 57 58 59 60 61 62 63 63 62 60 58 57 57 56 56 56 55 53 52 52 53 53 52 53 54 54 54
51 48 45 44 42 41 43 47 52 55 58 60 60 61 61 61 62 63 63 63 63 62 62 62 62 62 62 62 63 63 64 63 63 62 60 59 59 59 60 61 62 62 62 62 61 59 58 57 57 57 57 57 57 55 53 52 51 51 50 50 51 52 52
57 57 57 55 50 46 46 49 53 55 56 58 60 60 60 60 60 60 61 62 63 64 65 65 66 67 68 68 68 69 68 68 67 66 65 65 65 64 63 62 62 61 61 60 59 60 59 58 57 57 58 58 58 57 55 53 52 51 50 49 50 50 51
53 58 61 61 59 58 60 59 57 56 53 52 54 55 57 59 60 62 64 65 66 66 67 68 69 70 71 71 72 72 72 71 71 71 70 70 70 69 67 66 66 66 65 64 64 64 62 60 59 60 60 60 59 58 57 55 55 55 54 52 52 52 51
54 57 62 65 67 68 64 59 55 54 53 52 51 53 57 60 63 65 67 67 67 68 68 69 69 70 71 71 72 72 72 73 73 73 72 71 71 71 71 71 72 72 71 70 69 67 65 64 63 63 62 61 59 58 57 57 58 57 56 56 56 55 53
62 63 66 68 67 62 56 52 51 51 52 54 55 56 58 60 63 65 66 67 68 68 69 70 71 72 72 72 73 73 73 74 74 73 72 71 72 72 72 72 72 72 72 71 69 68 67 66 66 64 63 61 59 57 57 58 59 57 56 57 58 58 56
62 60 60 56 50 46 45 49 52 52 52 55 57 58 60 61 63 65 64 65 65 66 68 71 72 73 74 75 75 75 75 74 73 72 71 71 72 72 72 72 71 71 70 69 67 67 66 66 66 65 63 61 60 59 59 60 60 59 58 58 60 61 60
60 56 54 49 46 46 48 53 57 57 57 59 61 63 65 66 67 67 67 66 65 66 69 70 72 73 74 74 74 73 73 71 70 70 69 70 71 72 73 73 72 71 70 68 67 66 65 65 65 65 65 64 63 63 64 64 64 63 62 63 65 66 65
63 60 58 56 56 58 60 63 66 67 67 69 72 73 73 71 70 69 69 69 68 69 70 71 72 73 73 72 71 69 68 68 69 70 70 71 71 71 71 71 71 71 71 70 69 68 68 68 68 68 68 68 68 68 69 69 68 67 67 68 69 70 70
68 68 67 66 67 68 70 73 76 78 80 81 82 81 80 78 75 74 74 74 74 74 74 74 74 74 74 72 70 69 69 70 71 72 72 72 71 69 69 70 71 71 72 71 71 71 71 71 71 70 70 71 72 73 73 72 72 72 72 71 71 72 72
77 77 78 78 79 80 81 83 84 86 87 87 86 85 84 83 81 80 79 79 79 78 78 77 76 75 74 72 72 72 73 74 74 74 73 73 73 72 72 72 73 73 73 73 74 74 74 74 74 74 75 75 76 77 76 75 74 73 71 69 68 69 69
79 79 80 81 82 83 84 85 86 87 88 88 88 87 86 85 84 82 81 80 80 79 78 76 75 74 74 75 75 76 76 76 76 75 75 74 74 74 74 75 76 76 76 76 77 77 78 78 77 77 77 77 78 77 76 74 72 69 67 66 64 63 63
77 77 78 78 79 80 81 82 83 84 84 84 85 84 84 83 83 81 80 80 80 78 77 76 75 75 76 77 77 77 77 77 77 77 77 76 76 76 77 78 79 80 80 80 80 81 81 80 79 77 75 74 74 72 69 68 67 66 65 63 61 61 61
75 76 77 77 78 79 79 80 80 80 80 80 81 81 81 80 80 79 79 79 78 77 77 77 76 77 77 77 78 79 79 79 79 80 80 80 79 80 81 82 83 83 83 83 82 81 78 75 73 72 71 70 68 65 63 64 64 64 64 63 63 63 63
76 77 77 78 78 78 78 79 79 79 79 79 79 79 79 79 79 79 78 78 78 78 79 79 79 79 80 80 81 81 82 82 83 84 84 84 83 83 84 84 84 84 84 83 81 78 75 71 68 67 68 68 67 66 64 64 64 65 65 66 67 66 65
77 77 78 78 78 78 78 78 79 79 79 79 79 79 80 80 79 79 79 79 79 79 80 80 80 81 81 82 83 83 84 84 85 85 85 85 83 81 81 80 80 82 83 82 80 77 75 73 70 69 69 69 70 70 69 68 68 68 69 69 69 69 67
76 76 76 77 76 76 77 77 77 78 78 78 78 78 78 79 79 79 79 79 79 79 79 80 80 80 81 81 82 82 82 82 82 81 82 81 79 77 77 77 78 81 81 81 79 77 75 73 71 70 70 70 71 72 72 71 71 70 71 71 70 70 69
75 75 75 75 75 75 75 75 75 75 75 74 74 74 75 76 77 76 76 76 75 75 76 77 77 77 78 79 78 78 79 79 78 77 78 78 76 76 76 76 79 82 82 81 80 78 75 74 72 71 71 71 71 71 71 71 71 71 71 71 71 70 70
77 77 77 77 77 77 77 77 76 76 75 74 74 74 74 74 75 74 73 72 72 71 72 73 74 75 75 76 76 76 77 77 77 77 78 78 77 78 78 79 81 84 84 83 82 80 78 76 75 73 73 74 74 73 72 72 72 73 73 73 73 73 72
Wind_Direction
284 287 287 282 277 272 266 263 265 271 277 284 291 294 294 296 297 295 293 290 288 286 282 278 276 275 273 271 268 266 259 252 250 251 253 253 253 252 250 250 253 257 260 260 256 252 252 255 259 264 268 272 276 279 281 279 277 277 277 279 280 277 272
282 285 287 283 278 274 269 267 268 274 280 286 289 290 292 295 296 295 293 291 289 286 283 279 276 275 273 271 269 267 263 258 253 252 254 256 255 254 253 253 254 256 257 256 253 251 252 253 257 261 266 272 277 280 282 282 279 278 277 277 278 277 274
280 283 283 281 278 274 269 267 270 276 282 285 287 288 292 295 295 294 292 291 289 286 284 281 277 275 273 272 271 269 266 263 258 256 255 257 259 258 257 257 257 257 257 254 251 251 252 254 256 260 264 270 276 279 281 282 282 281 279 277 276 275 275
277 281 281 280 281 277 269 266 269 273 278 284 288 290 292 293 292 293 294 292 290 288 286 283 280 278 275 274 273 272 270 267 264 261 259 258 259 260 260 259 258 257 258 257 254 253 256 258 259 262 266 271 275 278 280 281 281 281 280 277 273 272 273
277 280 282 283 282 276 268 266 268 271 275 284 289 291 291 289 288 293 298 298 297 294 291 289 286 282 279 277 276 275 274 272 270 267 264 262 261 261 261 261 260 258 258 259 259 259 261 264 266 268 271 274 276 278 280 281 282 281 279 277 273 270 271
278 279 281 283 281 274 268 268 270 273 277 282 285 287 287 285 284 289 294 298 300 299 298 298 296 292 288 284 281 278 277 275 274 273 270 268 266 265 264 264 264 263 262 262 263 265 268 270 271 273 275 277 278 279 280 281 281 280 278 276 272 269 269
278 278 278 280 278 273 271 271 272 275 277 279 282 283 283 282 281 283 286 290 293 294 295 297 297 297 296 293 290 287 283 279 276 274 274 272 271 269 268 267 267 267 267 266 267 269 271 273 275 276 277 279 279 280 280 280 279 278 277 274 271 269 268
278 279 279 280 279 276 274 274 275 275 276 277 278 279 280 279 278 279 282 285 287 288 289 290 291 292 292 293 294 293 292 289 283 279 276 274 274 272 271 270 269 269 269 269 270 271 272 274 276 277 278 279 279 279 279 279 278 277 276 275 273 271 270
280 280 281 281 281 278 277 277 276 275 275 275 276 276 277 277 277 278 280 282 284 287 289 290 291 291 290 290 291 291 292 291 289 286 281 278 276 275 274 273 272 272 271 272 272 273 274 276 277 279 279 279 279 279 278 278 278 277 277 277 277 275 273
279 280 279 279 279 277 277 277 277 276 275 274 275 275 275 276 276 277 278 280 283 286 290 292 293 294 293 291 290 290 289 289 288 287 284 281 279 277 276 275 274 273 273 273 274 275 276 277 278 279 279 279 279 278 278 277 277 277 277 277 277 277 276
277 277 276 276 275 275 276 276 277 277 277 276 275 275 275 275 276 276 278 281 283 286 289 292 294 295 294 293 291 289 288 288 287 286 284 281 280 279 278 278 277 276 275 275 276 276 277 278 278 279 279 279 280 279 279 278 278 278 277 277 277 276 276
276 277 276 274 272 272 273 274 274 275 276 277 277 277 276 276 276 277 278 281 283 285 287 290 293 294 294 293 291 289 288 288 288 286 284 281 279 279 279 279 278 278 278 279 279 280 280 280 280 279 280 280 280 281 281 281 281 280 279 278 277 276 276
276 277 277 275 273 271 271 271 271 272 273 275 276 277 277 276 277 278 279 280 282 284 287 288 290 292 292 291 290 289 289 289 289 287 284 281 279 279 279 278 278 278 279 280 282 283 282 281 280 280 280 281 281 282 281 281 282 281 281 280 278 277 276
275 277 275 274 273 271 270 269 270 271 271 273 274 275 276 277 278 278 279 281 282 284 286 288 289 290 290 289 288 288 288 289 289 287 285 282 280 278 278 278 277 276 277 281 286 288 286 282 280 280 281 281 282 283 282 282 282 282 281 281 280 279 277
272 279 278 274 270 268 268 269 269 270 270 271 272 273 274 276 278 279 280 281 283 285 286 287 287 287 288 287 287 287 287 289 289 287 285 283 281 280 280 279 278 276 278 283 288 292 290 286 282 280 281 282 284 285 284 284 283 283 283 282 281 280 279
270 276 277 275 273 271 270 269 269 269 270 270 270 271 273 274 276 278 280 281 283 284 285 285 286 286 286 287 287 286 287 288 288 287 286 285 284 283 283 282 281 280 282 286 290 293 292 289 285 283 283 284 285 286 287 286 286 286 285 284 282 281 279
269 273 274 275 276 276 274 272 270 269 269 269 269 270 271 273 275 276 278 279 281 282 283 283 283 283 283 284 284 284 285 286 286 287 288 288 286 286 285 285 283 282 284 287 289 291 291 289 287 285 284 285 285 286 288 288 288 287 286 284 283 281 279
253 261 270 274 276 275 274 272 269 268 268 268 269 270 271 273 274 276 278 279 280 281 282 282 282 282 281 281 282 282 283 283 284 286 288 289 288 287 286 284 282 281 282 284 287 290 290 289 287 285 284 284 285 286 287 288 288 288 287 285 283 281 278
246 251 261 269 273 276 276 274 272 271 270 270 271 272 273 274 275 276 277 278 279 280 280 281 281 280 280 280 281 282 283 283 284 285 286 286 286 285 284 282 280 279 280 283 285 287 288 287 285 284 284 285 285 286 287 287 288 287 287 285 283 281 279
245 249 256 261 265 274 276 274 276 277 277 276 275 274 274 274 274 275 275 276 277 278 278 278 278 279 279 279 280 281 282 283 283 282 282 284 285 284 282 280 278 279 282 284 285 287 287 286 285 284 285 286 287 287 287 287 287 287 287 285 283 283 282
247 247 250 254 258 267 272 270 273 276 276 275 275 274 274 273 273 274 275 277 278 279 279 279 279 280 280 281 281 282 283 283 282 281 282 284 286 285 284 280 279 283 287 287 288 290 289 286 286 286 287 289 289 290 289 289 289 290 289 286 284 284 283
250 249 250 251 253 263 270 269 270 271 268 266 269 271 272 272 273 275 277 278 279 280 280 280 281 281 282 283 283 284 284 284 283 283 284 285 287 286 285 283 282 286 290 290 290 290 289 287 287 288 289 291 291 291 291 291 292 293 292 290 288 287 286
249 255 258 258 259 265 268 268 268 266 261 259 263 267 270 273 275 276 278 279 280 280 280 280 280 280 281 282 282 283 283 284 284 285 286 287 287 286 285 285 285 287 290 290 289 289 289 288 288 289 291 292 292 291 291 292 294 294 293 292 291 291 290
246 254 259 262 264 266 266 266 265 262 259 260 262 266 270 273 275 277 278 280 281 281 281 280 280 280 280 280 281 282 283 284 285 285 286 286 286 286 286 286 286 287 288 289 289 289 289 290 290 291 292 292 291 290 290 290 292 292 290 289 290 290 291
246 251 255 257 259 257 256 259 260 258 259 262 264 266 269 272 275 276 277 278 279 280 280 280 280 280 280 281 281 282 283 283 283 284 285 285 286 286 286 286 287 287 287 288 288 288 288 289 290 291 291 289 288 288 287 288 289 289 287 286 285 285 287
244 244 246 246 242 241 243 248 253 256 259 263 266 269 271 273 275 276 276 276 276 277 278 278 279 279 280 281 281 282 282 282 283 284 285 285 286 286 286 286 286 286 285 286 285 284 284 285 286 286 286 285 285 285 285 285 285 285 284 283 282 282 283
243 240 240 240 239 241 243 247 252 256 259 263 267 270 272 273 275 276 276 276 276 276 277 277 278 279 280 281 281 280 281 282 283 285 284 284 284 285 285 285 285 284 284 284 284 283 283 283 283 283 283 283 283 283 283 284 283 282 282 282 281 281 281
245 243 243 243 244 247 250 253 256 258 261 264 267 269 270 271 273 274 275 275 276 276 276 276 277 278 279 279 279 279 279 281 282 282 282 281 281 281 280 281 281 282 282 282 282 281 281 281 282 282 282 282 283 283 282 282 282 282 282 281 280 279 279
250 250 249 250 251 253 254 256 258 260 263 265 266 267 269 270 271 272 273 274 275 276 276 277 277 277 278 278 278 278 279 279 279 278 278 278 278 277 276 277 278 278 278 279 279 279 279 280 281 281 282 282 282 281 281 281 282 283 283 282 281 280 279
256 255 254 254 255 255 256 257 258 259 261 263 264 266 266 267 268 269 270 271 272 274 275 276 277 277 277 278 278 278 277 276 276 275 275 275 275 275 275 276 276 277 277 277 278 279 280 280 281 282 282 283 282 281 281 281 282 282 281 282 282 281 281
258 258 257 257 256 257 257 257 258 259 261 262 264 265 266 266 267 267 268 269 270 272 273 274 274 274 274 275 275 274 274 274 273 273 273 273 273 273 274 275 276 276 277 277 278 279 279 280 280 280 280 281 281 281 281 280 280 280 280 280 281 281 282
257 258 258 258 258 258 258 259 259 260 261 262 264 265 266 266 267 267 268 268 269 270 270 270 270 270 270 271 271 271 272 272 272 272 272 272 272 272 273 274 275 275 276 276 277 277 278 278 278 278 278 279 279 280 280 280 280 279 279 279 280 282 283
258 258 259 259 259 260 260 261 261 262 262 262 263 264 264 265 265 266 266 266 267 267 267 267 267 267 268 268 269 269 270 270 271 271 272 272 272 272 273 274 274 275 274 274 275 275 276 277 276 276 276 276 276 277 278 279 279 279 278 279 281 282 282
259 260 260 261 261 261 262 262 262 262 262 262 262 262 262 263 263 263 264 264 264 264 265 266 266 266 267 267 268 269 269 270 270 271 271 272 272 272 273 273 274 274 274 274 274 274 274 275 274 274 273 273 273 274 276 277 277 277 278 279 281 281 281
262 262 263 263 263 263 263 262 262 262 261 261 261 261 261 261 261 261 262 262 262 262 262 263 264 265 266 266 267 268 269 269 270 271 271 272 272 272 273 273 273 273 273 274 274 274 274 274 274 273 272 272 272 273 275 275 276 276 277 278 279 279 280
268 269 269 269 269 269 269 267 266 264 263 262 262 261 261 260 260 260 260 261 261 261 261 262 263 264 265 266 267 268 269 270 270 271 272 272 273 273 273 274 274 274 274 274 274 275 275 275 275 274 274 274 274 274 275 275 276 276 277 277 278 279 279
274 274 274 274 274 274 275 274 274 273 271 270 269 268 267 266 265 263 262 262 263 263 263 263 264 266 267 268 269 270 271 272 272 273 273 274 274 274 274 274 274 275 276 276 276 276 276 276 276 277 277 277 277 277 277 277 277 277 278 279 280 281 281
Height
10660 10662 10663 10664 10665 10666 10666 10666 10665 10664 10663 10662 10662 10661 10659 10658 10657 10656 10655 10655 10654 10654 10654 10654 10654 10654 10654 10655 10655 10655 10656 10656 10657 10659 10660 10662 10663 10664 10666 10667 10668 10668 10668 10668 10669 10668 10666 10665 10664 10664 10665 10665 10665 10665 10664 10664 10664 10664 10664 10663 10663 10662 10662
10657 10659 10660 10661 10662 10663 10663 10663 10663 10662 10662 10661 10661 10659 10657 10656 10654 10653 10653 10652 10651 10651 10651 10652 10652 10652 10652 10652 10652 10652 10652 10653 10653 10654 10656 10657 10659 10660 10661 10662 10663 10664 10664 10665 10664 10664 10663 10662 10661 10661 10661 10661 10661 10661 10660 10660 10659 10660 10660 10660 10659 10658 10658
10655 10655 10656 10657 10659 10659 10660 10660 10660 10660 10660 10660 10659 10658 10656 10654 10653 10651 10651 10650 10649 10649 10649 10650 10650 10650 10650 10649 10649 10649 10649 10649 10650 10650 10652 10653 10654 10656 10656 10657 10659 10660 10660 10660 10660 10660 10659 10659 10659 10658 10658 10658 10657 10656 10656 10656 10655 10655 10656 10657 10655 10653 10653
10652 10652 10653 10654 10655 10655 10656 10656 10656 10657 10658 10658 10657 10656 10654 10653 10651 10650 10649 10649 10648 10647 10647 10647 10647 10647 10647 10647 10647 10647 10647 10646 10646 10647 10648 10649 10651 10651 10652 10653 10655 10655 10655 10656 10656 10655 10655 10656 10655 10655 10655 10655 10653 10652 10651 10651 10651 10650 10651 10652 10652 10649 10648
10649 10649 10650 10651 10652 10652 10652 10652 10653 10654 10655 10655 10654 10653 10652 10651 10650 10649 10648 10647 10646 10646 10646 10645 10645 10645 10645 10645 10645 10645 10644 10644 10644 10644 10644 10645 10646 10647 10648 10649 10650 10651 10651 10651 10651 10651 10651 10651 10651 10651 10651 10650 10648 10646 10646 10647 10646 10645 10644 10645 10646 10645 10643
10645 10645 10646 10648 10648 10648 10648 10648 10649 10650 10651 10651 10651 10650 10650 10649 10648 10647 10646 10645 10644 10644 10644 10644 10643 10643 10643 10643 10642 10642 10642 10641 10641 10640 10640 10641 10642 10643 10643 10644 10645 10645 10646 10646 10646 10646 10646 10646 10646 10647 10646 10644 10642 10640 10641 10641 10641 10640 10639 10638 10639 10639 10638
10642 10642 10643 10644 10645 10645 10645 10645 10645 10646 10646 10647 10647 10647 10646 10646 10645 10645 10644 10643 10642 10642 10642 10641 10641 10642 10641 10641 10640 10640 10639 10639 10638 10637 10636 10636 10637 10637 10638 10639 10639 10640 10640 10641 10641 10641 10641 10640 10640 10641 10640 10638 10635 10635 10635 10635 10634 10634 10633 10633 10633 10633 10633
10638 10638 10639 10640 10641 10641 10641 10641 10641 10641 10642 10642 10643 10643 10642 10642 10641 10641 10641 10640 10639 10639 10639 10639 10639 10639 10639 10639 10638 10637 10637 10636 10635 10635 10634 10633 10633 10633 10633 10634 10634 10635 10635 10635 10636 10636 10636 10635 10634 10634 10633 10631 10630 10630 10630 10629 10628 10628 10627 10627 10627 10627 10627
10635 10635 10636 10637 10637 10636 10636 10636 10637 10637 10637 10638 10639 10639 10638 10638 10637 10637 10636 10636 10636 10635 10635 10635 10635 10635 10636 10636 10635 10635 10634 10633 10633 10632 10631 10631 10630 10629 10629 10629 10630 10630 10630 10630 10630 10630 10630 10630 10629 10628 10627 10625 10624 10625 10625 10624 10623 10622 10622 10621 10621 10621 10621
10630 10630 10631 10632 10632 10631 10630 10630 10631 10632 10633 10633 10634 10634 10634 10633 10633 10632 10632 10631 10631 10631 10630 10630 10630 10631 10631 10631 10631 10631 10631 10630 10630 10629 10629 10628 10628 10627 10626 10626 10625 10625 10625 10625 10625 10625 10625 10625 10624 10623 10621 10620 10620 10620 10620 10619 10618 10618 10617 10617 10616 10615 10615
10624 10624 10625 10626 10626 10625 10625 10624 10625 10627 10628 10628 10628 10628 10628 10628 10628 10627 10627 10626 10626 10626 10626 10626 10625 10625 10625 10626 10626 10626 10626 10626 10626 10626 10625 10625 10625 10624 10623 10622 10622 10621 10621 10621 10621 10621 10620 10620 10620 10619 10617 10616 10616 10616 10615 10614 10614 10613 10612 10612 10610 10610 10609
10619 10618 10619 10619 10620 10619 10619 10618 10619 10621 10622 10623 10623 10623 10623 10623 10622 10622 10621 10621 10621 10621 10621 10621 10621 10620 10620 10621 10621 10621 10621 10621 10621 10621 10621 10621 10620 10620 10619 10618 10618 10617 10616 10616 10616 10617 10616 10616 10616 10615 10613 10612 10612 10611 10610 10609 10608 10607 10607 10606 10605 10603 10602
10613 10612 10612 10613 10613 10613 10613 10612 10613 10614 10616 10617 10617 10617 10617 10617 10617 10616 10616 10616 10615 10615 10615 10616 10616 10615 10616 10616 10616 10616 10616 10616 10616 10616 10616 10616 10615 10615 10615 10614 10613 10613 10612 10612 10612 10612 10612 10612 10611 10610 10609 10607 10607 10606 10605 10604 10603 10601 10600 10600 10598 10597 10596
10609 10607 10607 10607 10607 10608 10608 10607 10607 10608 10609 10610 10611 10611 10611 10611 10611 10611 10610 10610 10610 10610 10610 10610 10610 10610 10610 10610 10610 10611 10611 10611 10611 10610 10610 10610 10610 10610 10610 10609 10609 10608 10608 10607 10607 10606 10605 10605 10606 10605 10603 10601 10600 10600 10600 10599 10598 10596 10594 10594 10592 10590 10590
10605 10603 10602 10601 10601 10602 10602 10602 10602 10603 10603 10603 10604 10605 10605 10605 10605 10605 10605 10605 10605 10605 10605 10605 10604 10604 10604 10604 10604 10605 10605 10605 10605 10605 10605 10605 10605 10605 10604 10604 10603 10603 10602 10601 10600 10599 10598 10598 10599 10598 10597 10595 10594 10593 10593 10592 10591 10589 10588 10587 10585 10584 10583
10600 10598 10596 10594 10594 10596 10597 10597 10597 10597 10596 10596 10597 10598 10599 10599 10599 10599 10599 10599 10599 10599 10599 10599 10598 10598 10598 10598 10598 10598 10598 10598 10598 10599 10599 10599 10599 10599 10598 10597 10597 10596 10595 10594 10593 10591 10590 10591 10591 10591 10590 10590 10588 10587 10586 10585 10584 10583 10581 10579 10577 10577 10577
10595 10589 10587 10586 10586 10588 10589 10589 10590 10590 10589 10590 10590 10591 10592 10592 10592 10593 10593 10593 10593 10593 10593 10592 10592 10592 10591 10591 10591 10591 10591 10591 10591 10592 10592 10593 10593 10592 10592 10591 10590 10588 10587 10587 10586 10585 10583 10583 10584 10583 10582 10582 10582 10581 10579 10577 10576 10575 10574 10571 10569 10569 10569
10589 10581 10578 10579 10579 10579 10580 10580 10582 10582 10582 10583 10583 10584 10585 10585 10585 10586 10586 10586 10586 10586 10585 10585 10585 10585 10585 10585 10584 10584 10584 10585 10584 10585 10585 10586 10586 10586 10585 10584 10582 10581 10580 10580 10580 10581 10579 10577 10576 10575 10573 10573 10574 10575 10573 10570 10568 10567 10565 10563 10561 10561 10561
10583 10577 10575 10575 10574 10573 10573 10573 10574 10575 10575 10576 10576 10577 10578 10578 10578 10579 10579 10579 10579 10578 10578 10577 10577 10577 10577 10577 10577 10577 10577 10577 10577 10578 10579 10579 10579 10579 10578 10577 10575 10573 10573 10574 10575 10576 10574 10571 10568 10567 10565 10563 10565 10567 10566 10564 10562 10560 10558 10556 10553 10552 10551
10577 10575 10572 10571 10569 10569 10569 10568 10567 10568 10568 10568 10569 10569 10570 10571 10571 10571 10572 10572 10572 10572 10571 10570 10569 10569 10568 10568 10569 10569 10570 10570 10570 10571 10572 10573 10573 10572 10571 10568 10566 10566 10567 10568 10568 10568 10567 10565 10561 10560 10558 10556 10555 10556 10557 10557 10555 10553 10553 10550 10547 10545 10544
10571 10569 10567 10566 10565 10564 10564 10563 10561 10561 10561 10560 10560 10561 10562 10563 10564 10565 10565 10565 10565 10565 10564 10563 10561 10560 10559 10559 10560 10561 10562 10562 10562 10563 10564 10565 10566 10564 10562 10559 10557 10559 10561 10562 10561 10559 10559 10558 10555 10553 10551 10549 10547 10546 10546 10547 10546 10545 10546 10545 10542 10540 10538
10563 10562 10562 10561 10560 10559 10558 10557 10556 10555 10555 10553 10553 10554 10555 10556 10557 10558 10558 10558 10558 10557 10556 10555 10554 10552 10551 10552 10552 10552 10552 10552 10553 10554 10556 10558 10557 10554 10552 10551 10550 10551 10554 10554 10552 10550 10549 10550 10549 10547 10545 10543 10541 10538 10537 10537 10537 10536 10536 10536 10535 10533 10532
10558 10557 10555 10554 10554 10554 10553 10550 10549 10549 10548 10547 10548 10548 10549 10549 10550 10550 10550 10550 10550 10550 10549 10548 10546 10545 10545 10545 10544 10544 10543 10544 10545 10547 10549 10550 10548 10544 10544 10543 10543 10544 10545 10544 10543 10542 10541 10541 10541 10539 10537 10535 10534 10532 10529 10528 10528 10527 10526 10526 10526 10525 10525
10555 10551 10548 10548 10548 10549 10547 10542 10539 10540 10540 10540 10542 10542 10542 10542 10543 10543 10544 10543 10543 10542 10540 10539 10538 10538 10538 10537 10537 10537 10537 10537 10537 10539 10541 10540 10538 10537 10537 10537 10537 10536 10536 10535 10534 10533 10532 10532 10532 10531 10529 10527 10525 10524 10522 10520 10520 10519 10518 10518 10517 10516 10518
10550 10545 10543 10546 10546 10544 10541 10534 10530 10532 10533 10533 10534 10535 10536 10537 10537 10537 10538 10537 10536 10535 10532 10531 10530 10530 10530 10531 10531 10530 10530 10530 10531 10532 10533 10531 10530 10530 10530 10530 10530 10529 10528 10528 10528 10526 10525 10524 10522 10521 10520 10518 10517 10517 10516 10514 10513 10513 10512 10512 10510 10509 10510
10544 10540 10540 10542 10540 10537 10533 10528 10525 10526 10527 10527 10528 10528 10530 10531 10531 10531 10531 10531 10530 10528 10526 10524 10523 10523 10523 10524 10524 10524 10523 10523 10523 10524 10524 10523 10523 10522 10522 10521 10521 10520 10520 10521 10521 10520 10519 10518 10515 10514 10513 10512 10510 10510 10509 10507 10507 10507 10506 10505 10503 10501 10501
10537 10536 10535 10535 10533 10531 10528 10524 10522 10521 10521 10521 10522 10522 10523 10524 10524 10524 10522 10522 10522 10521 10520 10518 10517 10517 10517 10517 10517 10516 10516 10515 10515 10516 10516 10515 10516 10515 10513 10512 10512 10510 10510 10512 10512 10512 10511 10510 10509 10507 10506 10505 10504 10503 10502 10500 10500 10499 10498 10497 10496 10494 10493
10530 10529 10528 10528 10527 10526 10524 10521 10518 10516 10515 10515 10516 10516 10517 10517 10517 10516 10514 10513 10513 10513 10512 10512 10511 10511 10510 10509 10509 10509 10509 10509 10509 10508 10508 10508 10509 10508 10506 10504 10502 10501 10501 10502 10502 10502 10502 10501 10500 10499 10498 10497 10495 10494 10493 10492 10491 10491 10490 10489 10487 10486 10484
10520 10521 10520 10520 10520 10519 10517 10515 10513 10510 10509 10508 10508 10509 10509 10509 10509 10509 10507 10506 10505 10504 10504 10504 10503 10502 10501 10501 10501 10502 10502 10502 10502 10502 10501 10500 10500 10499 10497 10495 10494 10494 10493 10492 10492 10492 10492 10492 10491 10490 10489 10488 10486 10485 10484 10483 10482 10482 10481 10479 10478 10477 10476
10509 10510 10510 10510 10510 10509 10508 10507 10505 10503 10502 10501 10500 10500 10500 10500 10500 10501 10501 10499 10498 10498 10497 10496 10494 10493 10492 10493 10493 10493 10493 10493 10493 10494 10493 10493 10491 10489 10487 10486 10485 10485 10484 10483 10483 10483 10483 10483 10482 10481 10480 10478 10476 10475 10475 10474 10473 10473 10471 10471 10470 10469 10468
10496 10497 10497 10498 10497 10497 10497 10497 10496 10495 10494 10493 10491 10491 10491 10490 10490 10491 10492 10490 10490 10490 10490 10488 10487 10486 10485 10485 10484 10483 10483 10483 10484 10483 10484 10484 10483 10480 10478 10477 10475 10474 10474 10474 10474 10474 10473 10474 10473 10472 10471 10468 10466 10465 10465 10465 10464 10464 10463 10462 10461 10460 10460
10484 10484 10484 10485 10486 10486 10486 10486 10485 10485 10485 10485 10483 10482 10482 10481 10481 10481 10481 10481 10481 10481 10481 10480 10479 10479 10478 10477 10475 10474 10474 10474 10474 10473 10473 10475 10474 10472 10470 10468 10466 10465 10464 10463 10463 10463 10464 10466 10465 10463 10462 10460 10457 10457 10457 10456 10455 10455 10454 10453 10452 10452 10451
10474 10474 10473 10474 10475 10475 10475 10475 10475 10475 10475 10475 10474 10473 10472 10472 10471 10471 10471 10471 10471 10470 10470 10470 10469 10469 10468 10467 10466 10465 10465 10464 10463 10462 10462 10463 10464 10462 10460 10459 10456 10453 10452 10451 10452 10453 10454 10457 10457 10455 10453 10451 10449 10448 10448 10448 10447 10446 10444 10444 10443 10443 10442
10463 10463 10463 10463 10464 10464 10464 10464 10463 10463 10463 10463 10463 10463 10462 10461 10461 10460 10460 10461 10461 10460 10459 10458 10458 10458 10457 10456 10455 10455 10455 10453 10453 10453 10451 10452 10454 10453 10450 10449 10445 10440 10438 10439 10441 10443 10445 10447 10448 10446 10444 10443 10441 10439 10440 10440 10439 10437 10436 10435 10434 10434 10433
10451 10451 10451 10451 10451 10451 10451 10450 10450 10450 10449 10449 10450 10451 10451 10450 10450 10450 10450 10450 10450 10450 10449 10448 10447 10446 10445 10446 10445 10445 10444 10443 10443 10443 10440 10440 10444 10442 10440 10439 10434 10428 10426 10428 10430 10432 10435 10437 10437 10436 10434 10433 10432 10430 10429 10429 10429 10428 10427 10426 10425 10425 10424
10437 10437 10437 10437 10437 10437 10436 10435 10436 10435 10435 10436 10437 10437 10437 10436 10436 10437 10438 10438 10438 10439 10439 10438 10437 10436 10434 10434 10435 10434 10433 10431 10432 10433 10430 10430 10432 10431 10429 10428 10422 10415 10414 10417 10418 10420 10423 10424 10425 10425 10424 10422 10421 10420 10419 10419 10418 10417 10416 10415 10415 10415 10415
10423 10423 10424 10424 10424 10423 10422 10421 10421 10421 10420 10421 10422 10422 10421 10421 10421 10422 10424 10425 10426 10427 10427 10427 10427 10425 10424 10423 10423 10422 10421 10420 10421 10421 10419 10419 10420 10418 10417 10416 10410 10404 10403 10404 10405 10407 10410 10410 10412 10413 10412 10411 10410 10409 10409 10407 10406 10406 10405 10405 10405 10404 10403